When you browse on this site, cookies collect data to enhance your experience and personalize the content and advertising you see.
Visit our Privacy Policy to learn more. By continuing to use the site, you agree to this use of cookies and data.
  • în România
  • Lista ţărilor
  • Pe 7 zile
  • Temperatura apei
  • Hartă satelitară
  • Meteo pe hartă
  • Widget-uri
  • user-avatar
    Intrare

    Meteo pe oră la Habra

    Astăzi, 18 Aprilie, Joi

    Timp Temperatura Precipitaţii Vânt Presiune Umiditate
    00:00 +31°C° 0 mm 2 m/s 756 mmHg 55%
    01:00 +31°C° 0 mm 2 m/s 756 mmHg 52%
    02:00 +30°C° 0 mm 2 m/s 756 mmHg 50%
    03:00 +30°C° 0 mm 2 m/s 755 mmHg 47%
    04:00 +30°C° 0 mm 1 m/s 755 mmHg 47%
    05:00 +29°C° 0 mm 1 m/s 755 mmHg 46%
    06:00 +29°C° 0 mm 1 m/s 756 mmHg 50%
    07:00 +31°C° 0 mm 1 m/s 756 mmHg 44%
    08:00 +34°C° 0 mm 2 m/s 757 mmHg 38%
    09:00 +36°C° 0 mm 2 m/s 757 mmHg 33%
    10:00 +37°C° 0 mm 2 m/s 757 mmHg 30%
    11:00 +39°C° 0 mm 2 m/s 757 mmHg 27%
    12:00 +40°C° 0 mm 2 m/s 756 mmHg 24%
    13:00 +41°C° 0 mm 2 m/s 756 mmHg 23%
    14:00 +42°C° 0 mm 3 m/s 755 mmHg 22%
    15:00 +43°C° 0 mm 3 m/s 754 mmHg 21%
    16:00 +42°C° 0 mm 3 m/s 754 mmHg 22%
    17:00 +40°C° 0 mm 3 m/s 753 mmHg 24%
    18:00 +40°C° 0 mm 3 m/s 753 mmHg 25%
    19:00 +38°C° 0 mm 3 m/s 754 mmHg 29%
    20:00 +37°C° 0 mm 4 m/s 754 mmHg 32%
    21:00 +35°C° 0 mm 5 m/s 755 mmHg 36%
    22:00 +35°C° 0 mm 4 m/s 755 mmHg 37%
    23:00 +34°C° 0 mm 3 m/s 755 mmHg 38%

    Mâine, 19 Aprilie, Vineri

    Timp Temperatura Precipitaţii Vânt Presiune Umiditate
    00:00 +32°C° 0 mm 2 m/s 755 mmHg 39%
    01:00 +32°C° 0 mm 2 m/s 754 mmHg 41%
    02:00 +31°C° 0 mm 2 m/s 754 mmHg 43%
    03:00 +31°C° 0 mm 3 m/s 753 mmHg 45%
    04:00 +30°C° 0 mm 2 m/s 753 mmHg 50%
    05:00 +30°C° 0 mm 2 m/s 754 mmHg 55%
    06:00 +29°C° 0 mm 2 m/s 754 mmHg 61%
    07:00 +31°C° 0 mm 2 m/s 754 mmHg 54%
    08:00 +34°C° 0 mm 2 m/s 755 mmHg 48%
    09:00 +36°C° 0 mm 3 m/s 755 mmHg 41%
    10:00 +38°C° 0 mm 2 m/s 755 mmHg 36%
    11:00 +40°C° 0 mm 2 m/s 755 mmHg 31%
    12:00 +41°C° 0 mm 2 m/s 755 mmHg 25%
    13:00 +40°C° 0.1 mm 3 m/s 755 mmHg 28%
    14:00 +41°C° 0.1 mm 4 m/s 754 mmHg 30%
    15:00 +40°C° 0.1 mm 5 m/s 753 mmHg 33%
    16:00 +38°C° 0 mm 6 m/s 753 mmHg 38%
    17:00 +35°C° 0 mm 6 m/s 753 mmHg 43%
    18:00 +33°C° 0 mm 7 m/s 753 mmHg 48%
    19:00 +33°C° 0 mm 5 m/s 754 mmHg 47%
    20:00 +32°C° 0 mm 4 m/s 754 mmHg 45%
    21:00 +31°C° 0 mm 2 m/s 755 mmHg 44%
    22:00 +30°C° 0 mm 2 m/s 755 mmHg 44%
    23:00 +30°C° 0 mm 3 m/s 755 mmHg 44%

    Poimâine, 20 Aprilie, Sâmbătă

    Timp Temperatura Precipitaţii Vânt Presiune Umiditate
    00:00 +30°C° 0 mm 3 m/s 755 mmHg 44%
    01:00 +30°C° 0 mm 3 m/s 754 mmHg 46%
    02:00 +30°C° 0 mm 3 m/s 753 mmHg 47%
    03:00 +30°C° 0 mm 2 m/s 753 mmHg 49%
    04:00 +30°C° 0 mm 2 m/s 753 mmHg 50%
    05:00 +30°C° 0 mm 1 m/s 753 mmHg 51%
    06:00 +30°C° 0 mm 1 m/s 753 mmHg 53%
    07:00 +31°C° 0 mm 1 m/s 754 mmHg 49%
    08:00 +34°C° 0 mm 2 m/s 754 mmHg 45%
    09:00 +35°C° 0 mm 2 m/s 755 mmHg 41%
    10:00 +37°C° 0 mm 2 m/s 755 mmHg 36%
    11:00 +39°C° 0 mm 2 m/s 754 mmHg 30%
    12:00 +40°C° 0 mm 1 m/s 754 mmHg 25%
    13:00 +40°C° 0 mm 2 m/s 753 mmHg 24%
    14:00 +40°C° 0 mm 2 m/s 752 mmHg 24%
    15:00 +40°C° 0 mm 2 m/s 751 mmHg 23%
    16:00 +40°C° 0 mm 2 m/s 751 mmHg 24%
    17:00 +39°C° 0 mm 2 m/s 751 mmHg 25%
    18:00 +39°C° 0 mm 2 m/s 751 mmHg 25%
    19:00 +37°C° 0 mm 2 m/s 752 mmHg 28%
    20:00 +36°C° 0 mm 2 m/s 753 mmHg 31%
    21:00 +35°C° 0 mm 3 m/s 753 mmHg 34%
    22:00 +34°C° 0 mm 2 m/s 753 mmHg 41%
    23:00 +32°C° 0 mm 2 m/s 753 mmHg 49%

    21 Aprilie, Duminică

    Timp Temperatura Precipitaţii Vânt Presiune Umiditate
    00:00 +31°C° 0 mm 2 m/s 753 mmHg 56%
    01:00 +30°C° 0 mm 2 m/s 752 mmHg 58%
    02:00 +30°C° 0 mm 2 m/s 752 mmHg 60%
    03:00 +29°C° 0 mm 2 m/s 751 mmHg 61%
    04:00 +29°C° 0 mm 2 m/s 752 mmHg 65%
    05:00 +29°C° 0 mm 2 m/s 752 mmHg 70%
    06:00 +29°C° 0 mm 2 m/s 752 mmHg 74%
    07:00 +31°C° 0 mm 3 m/s 753 mmHg 64%
    08:00 +35°C° 0 mm 4 m/s 753 mmHg 55%
    09:00 +37°C° 0 mm 4 m/s 754 mmHg 45%
    10:00 +40°C° 0 mm 4 m/s 753 mmHg 37%
    11:00 +42°C° 0 mm 4 m/s 753 mmHg 29%
    12:00 +44°C° 0 mm 4 m/s 753 mmHg 21%
    13:00 +43°C° 0 mm 4 m/s 752 mmHg 23%
    14:00 +42°C° 0 mm 3 m/s 751 mmHg 26%
    15:00 +40°C° 0 mm 3 m/s 751 mmHg 28%
    16:00 +39°C° 0 mm 3 m/s 751 mmHg 30%
    17:00 +39°C° 0 mm 3 m/s 751 mmHg 32%
    18:00 +38°C° 0 mm 3 m/s 751 mmHg 33%
    19:00 +37°C° 0 mm 4 m/s 751 mmHg 41%
    20:00 +36°C° 0 mm 6 m/s 752 mmHg 48%
    21:00 +34°C° 0 mm 7 m/s 753 mmHg 55%
    22:00 +34°C° 0 mm 6 m/s 753 mmHg 50%
    23:00 +33°C° 0 mm 6 m/s 752 mmHg 45%

    22 Aprilie, Luni

    Timp Temperatura Precipitaţii Vânt Presiune Umiditate
    00:00 +33°C° 0 mm 5 m/s 752 mmHg 40%
    01:00 +33°C° 0 mm 4 m/s 752 mmHg 40%
    02:00 +31°C° 0 mm 3 m/s 751 mmHg 40%
    03:00 +31°C° 0 mm 2 m/s 751 mmHg 40%
    04:00 +30°C° 0 mm 2 m/s 751 mmHg 43%
    05:00 +30°C° 0 mm 2 m/s 752 mmHg 46%
    06:00 +29°C° 0 mm 1 m/s 752 mmHg 49%
    07:00 +31°C° 0 mm 2 m/s 753 mmHg 46%
    08:00 +35°C° 0 mm 3 m/s 753 mmHg 44%
    09:00 +37°C° 0 mm 3 m/s 754 mmHg 42%
    10:00 +39°C° 0 mm 3 m/s 754 mmHg 37%
    11:00 +40°C° 0 mm 3 m/s 753 mmHg 32%
    12:00 +43°C° 0 mm 3 m/s 753 mmHg 27%
    13:00 +42°C° 0.1 mm 4 m/s 752 mmHg 27%
    14:00 +42°C° 0.1 mm 4 m/s 751 mmHg 28%
    15:00 +41°C° 0.1 mm 5 m/s 751 mmHg 28%
    16:00 +40°C° 0.4 mm 4 m/s 751 mmHg 31%
    17:00 +38°C° 0.4 mm 4 m/s 751 mmHg 34%
    18:00 +37°C° 0.4 mm 4 m/s 751 mmHg 36%
    19:00 +35°C° 0.2 mm 3 m/s 752 mmHg 43%
    20:00 +34°C° 0.2 mm 3 m/s 753 mmHg 49%
    21:00 +31°C° 0.2 mm 2 m/s 754 mmHg 55%
    22:00 +31°C° 0 mm 3 m/s 754 mmHg 56%
    23:00 +30°C° 0 mm 4 m/s 753 mmHg 56%

    23 Aprilie, Marţi

    Timp Temperatura Precipitaţii Vânt Presiune Umiditate
    00:00 +30°C° 0 mm 4 m/s 753 mmHg 57%
    01:00 +30°C° 0 mm 4 m/s 753 mmHg 61%
    02:00 +30°C° 0 mm 3 m/s 753 mmHg 65%
    03:00 +30°C° 0 mm 2 m/s 752 mmHg 70%
    04:00 +29°C° 0 mm 2 m/s 753 mmHg 73%
    05:00 +29°C° 0 mm 2 m/s 753 mmHg 76%
    06:00 +29°C° 0 mm 2 m/s 754 mmHg 79%
    07:00 +31°C° 0 mm 2 m/s 754 mmHg 70%
    08:00 +34°C° 0 mm 3 m/s 755 mmHg 62%
    09:00 +36°C° 0 mm 4 m/s 755 mmHg 54%
    10:00 +38°C° 0 mm 4 m/s 755 mmHg 47%
    11:00 +40°C° 0 mm 4 m/s 754 mmHg 40%
    12:00 +42°C° 0 mm 4 m/s 754 mmHg 33%
    13:00 +43°C° 0 mm 4 m/s 753 mmHg 31%
    14:00 +43°C° 0 mm 5 m/s 753 mmHg 29%
    15:00 +45°C° 0 mm 5 m/s 752 mmHg 27%
    16:00 +42°C° 0 mm 5 m/s 752 mmHg 31%
    17:00 +41°C° 0 mm 5 m/s 752 mmHg 35%
    18:00 +39°C° 0 mm 6 m/s 752 mmHg 39%
    19:00 +36°C° 2 mm 5 m/s 753 mmHg 47%
    20:00 +34°C° 2 mm 4 m/s 754 mmHg 55%
    21:00 +30°C° 2 mm 3 m/s 755 mmHg 63%
    22:00 +30°C° 0 mm 4 m/s 755 mmHg 65%
    23:00 +30°C° 0 mm 6 m/s 754 mmHg 68%
    Arată mai mult